When you browse on this site, cookies collect data to enhance your experience and personalize the content and advertising you see.
Visit our Privacy Policy to learn more. By continuing to use the site, you agree to this use of cookies and data.
  • In Hungary
  • List of Countries
  • For 7 days
  • Water Temperature
  • Satellite Maps
  • Weather Map
  • News
  • Weather Widgets
  • user-avatar
    Login

    Hourly Weather Dhaka

    Today, 22 April, Monday

    Time Temperature Precipitation Wind Pressure Humidity
    00:00 +31°C° 0 mm 2 mps 754 mmHg 50%
    01:00 +31°C° 1 mm 2 mps 753 mmHg 55%
    02:00 +30°C° 1 mm 1 mps 753 mmHg 59%
    03:00 +29°C° 1 mm 1 mps 753 mmHg 63%
    04:00 +29°C° 0 mm 1 mps 753 mmHg 63%
    05:00 +29°C° 0 mm 1 mps 753 mmHg 63%
    06:00 +29°C° 0 mm 1 mps 753 mmHg 63%
    07:00 +31°C° 0 mm 1 mps 754 mmHg 56%
    08:00 +32°C° 0 mm 2 mps 754 mmHg 50%
    09:00 +35°C° 0 mm 2 mps 755 mmHg 43%
    10:00 +36°C° 0 mm 2 mps 754 mmHg 39%
    11:00 +37°C° 0 mm 2 mps 754 mmHg 35%
    12:00 +39°C° 0 mm 2 mps 754 mmHg 31%
    13:00 +39°C° 0 mm 1 mps 753 mmHg 29%
    14:00 +40°C° 0 mm 1 mps 752 mmHg 28%
    15:00 +40°C° 0 mm 1 mps 752 mmHg 26%
    16:00 +40°C° 0 mm 1 mps 751 mmHg 27%
    17:00 +39°C° 0 mm 1 mps 751 mmHg 29%
    18:00 +37°C° 0 mm 1 mps 751 mmHg 31%
    19:00 +36°C° 0 mm 1 mps 752 mmHg 31%
    20:00 +36°C° 0 mm 1 mps 752 mmHg 32%
    21:00 +36°C° 0 mm 2 mps 753 mmHg 32%
    22:00 +35°C° 0 mm 2 mps 753 mmHg 34%
    23:00 +35°C° 0 mm 2 mps 753 mmHg 37%

    Tomorrow, 23 April, Tuesday

    Time Temperature Precipitation Wind Pressure Humidity
    00:00 +34°C° 0 mm 2 mps 754 mmHg 39%
    01:00 +32°C° 0 mm 2 mps 753 mmHg 42%
    02:00 +32°C° 0 mm 1 mps 753 mmHg 45%
    03:00 +31°C° 0 mm 1 mps 753 mmHg 48%
    04:00 +31°C° 0 mm 1 mps 753 mmHg 49%
    05:00 +30°C° 0 mm 1 mps 753 mmHg 49%
    06:00 +30°C° 0 mm 1 mps 754 mmHg 50%
    07:00 +32°C° 0 mm 1 mps 754 mmHg 45%
    08:00 +34°C° 0 mm 1 mps 755 mmHg 39%
    09:00 +37°C° 0 mm 2 mps 755 mmHg 34%
    10:00 +37°C° 0 mm 1 mps 755 mmHg 31%
    11:00 +39°C° 0 mm 1 mps 755 mmHg 28%
    12:00 +41°C° 0 mm 1 mps 755 mmHg 25%
    13:00 +41°C° 0 mm 1 mps 754 mmHg 24%
    14:00 +41°C° 0 mm 1 mps 753 mmHg 23%
    15:00 +41°C° 0 mm 1 mps 752 mmHg 22%
    16:00 +41°C° 0 mm 1 mps 752 mmHg 24%
    17:00 +40°C° 0 mm 1 mps 752 mmHg 26%
    18:00 +39°C° 0 mm 1 mps 752 mmHg 28%
    19:00 +37°C° 0 mm 1 mps 753 mmHg 31%
    20:00 +36°C° 0 mm 2 mps 753 mmHg 34%
    21:00 +35°C° 0 mm 3 mps 754 mmHg 38%
    22:00 +34°C° 0 mm 3 mps 754 mmHg 40%
    23:00 +34°C° 0 mm 3 mps 755 mmHg 43%

    Day after tomorrow, 24 April, Wednesday

    Time Temperature Precipitation Wind Pressure Humidity
    00:00 +32°C° 0 mm 2 mps 755 mmHg 45%
    01:00 +32°C° 0 mm 2 mps 755 mmHg 46%
    02:00 +32°C° 0 mm 1 mps 754 mmHg 46%
    03:00 +32°C° 0 mm 1 mps 754 mmHg 47%
    04:00 +31°C° 0 mm 1 mps 754 mmHg 48%
    05:00 +31°C° 0 mm 1 mps 755 mmHg 48%
    06:00 +31°C° 0 mm 2 mps 755 mmHg 49%
    07:00 +34°C° 0 mm 2 mps 755 mmHg 45%
    08:00 +35°C° 0 mm 3 mps 756 mmHg 40%
    09:00 +37°C° 0 mm 3 mps 757 mmHg 36%
    10:00 +38°C° 0 mm 2 mps 756 mmHg 33%
    11:00 +40°C° 0 mm 2 mps 756 mmHg 29%
    12:00 +41°C° 0 mm 1 mps 756 mmHg 26%
    13:00 +41°C° 0 mm 1 mps 755 mmHg 25%
    14:00 +42°C° 0 mm 1 mps 754 mmHg 24%
    15:00 +42°C° 0 mm 1 mps 753 mmHg 23%
    16:00 +41°C° 0 mm 1 mps 752 mmHg 24%
    17:00 +38°C° 0 mm 0 mps 752 mmHg 26%
    18:00 +37°C° 0 mm 0 mps 752 mmHg 28%
    19:00 +39°C° 0 mm 1 mps 753 mmHg 29%
    20:00 +38°C° 0 mm 2 mps 753 mmHg 30%
    21:00 +37°C° 0 mm 2 mps 754 mmHg 31%
    22:00 +36°C° 0 mm 2 mps 754 mmHg 34%
    23:00 +36°C° 0 mm 2 mps 754 mmHg 37%

    25 April, Thursday

    Time Temperature Precipitation Wind Pressure Humidity
    00:00 +35°C° 0 mm 2 mps 754 mmHg 40%
    01:00 +34°C° 0 mm 2 mps 754 mmHg 42%
    02:00 +33°C° 0 mm 1 mps 754 mmHg 44%
    03:00 +32°C° 0 mm 1 mps 753 mmHg 46%
    04:00 +32°C° 0 mm 1 mps 754 mmHg 48%
    05:00 +32°C° 0 mm 1 mps 754 mmHg 51%
    06:00 +31°C° 0 mm 1 mps 754 mmHg 53%
    07:00 +33°C° 0 mm 1 mps 755 mmHg 48%
    08:00 +34°C° 0 mm 1 mps 755 mmHg 43%
    09:00 +37°C° 0 mm 2 mps 756 mmHg 38%
    10:00 +38°C° 0 mm 2 mps 756 mmHg 34%
    11:00 +40°C° 0 mm 2 mps 755 mmHg 30%
    12:00 +41°C° 0 mm 2 mps 755 mmHg 26%
    13:00 +42°C° 0 mm 2 mps 754 mmHg 25%
    14:00 +42°C° 0 mm 2 mps 753 mmHg 24%
    15:00 +43°C° 0 mm 2 mps 752 mmHg 22%
    16:00 +42°C° 0 mm 1 mps 752 mmHg 24%
    17:00 +41°C° 0 mm 1 mps 752 mmHg 25%
    18:00 +38°C° 0 mm 0 mps 752 mmHg 27%
    19:00 +40°C° 0 mm 1 mps 752 mmHg 28%
    20:00 +39°C° 0 mm 2 mps 753 mmHg 29%
    21:00 +38°C° 0 mm 3 mps 753 mmHg 29%
    22:00 +37°C° 0 mm 3 mps 753 mmHg 32%
    23:00 +36°C° 0 mm 2 mps 753 mmHg 34%

    26 April, Friday

    Time Temperature Precipitation Wind Pressure Humidity
    00:00 +35°C° 0 mm 2 mps 753 mmHg 37%
    01:00 +34°C° 0 mm 2 mps 752 mmHg 39%
    02:00 +34°C° 0 mm 2 mps 752 mmHg 41%
    03:00 +32°C° 0 mm 2 mps 752 mmHg 43%
    04:00 +32°C° 0 mm 2 mps 752 mmHg 46%
    05:00 +31°C° 0 mm 1 mps 753 mmHg 49%
    06:00 +31°C° 0 mm 1 mps 753 mmHg 52%
    07:00 +33°C° 0 mm 1 mps 754 mmHg 47%
    08:00 +34°C° 0 mm 1 mps 754 mmHg 43%
    09:00 +37°C° 0 mm 2 mps 755 mmHg 38%
    10:00 +38°C° 0 mm 2 mps 754 mmHg 34%
    11:00 +40°C° 0 mm 2 mps 754 mmHg 30%
    12:00 +43°C° 0 mm 3 mps 753 mmHg 26%
    13:00 +43°C° 0 mm 3 mps 752 mmHg 25%
    14:00 +44°C° 0 mm 3 mps 751 mmHg 24%
    15:00 +44°C° 0 mm 3 mps 750 mmHg 23%
    16:00 +44°C° 0 mm 3 mps 750 mmHg 24%
    17:00 +42°C° 0 mm 2 mps 750 mmHg 25%
    18:00 +41°C° 0 mm 2 mps 750 mmHg 26%
    19:00 +41°C° 0 mm 4 mps 751 mmHg 28%
    20:00 +40°C° 0 mm 5 mps 751 mmHg 30%
    21:00 +39°C° 0 mm 6 mps 752 mmHg 32%
    22:00 +37°C° 0 mm 5 mps 752 mmHg 36%
    23:00 +36°C° 0 mm 5 mps 752 mmHg 41%

    27 April, Saturday

    Time Temperature Precipitation Wind Pressure Humidity
    00:00 +34°C° 0 mm 4 mps 751 mmHg 45%
    01:00 +34°C° 0 mm 4 mps 751 mmHg 48%
    02:00 +33°C° 0 mm 4 mps 751 mmHg 52%
    03:00 +32°C° 0 mm 4 mps 751 mmHg 55%
    04:00 +31°C° 0 mm 3 mps 752 mmHg 59%
    05:00 +31°C° 0 mm 3 mps 752 mmHg 62%
    06:00 +30°C° 0 mm 3 mps 753 mmHg 65%
    07:00 +33°C° 0 mm 3 mps 753 mmHg 60%
    08:00 +35°C° 0 mm 4 mps 753 mmHg 55%
    09:00 +36°C° 0 mm 5 mps 754 mmHg 49%
    10:00 +40°C° 0 mm 5 mps 753 mmHg 41%
    11:00 +42°C° 0 mm 5 mps 753 mmHg 33%
    12:00 +45°C° 0 mm 6 mps 752 mmHg 25%
    13:00 +46°C° 0 mm 6 mps 751 mmHg 23%
    14:00 +46°C° 0 mm 5 mps 750 mmHg 22%
    15:00 +47°C° 0 mm 5 mps 750 mmHg 21%
    16:00 +45°C° 0 mm 6 mps 749 mmHg 24%
    17:00 +44°C° 0 mm 6 mps 749 mmHg 27%
    18:00 +43°C° 0 mm 7 mps 749 mmHg 30%
    19:00 +40°C° 0 mm 7 mps 750 mmHg 34%
    20:00 +39°C° 0 mm 7 mps 750 mmHg 39%
    21:00 +36°C° 0 mm 7 mps 751 mmHg 43%
    22:00 +35°C° 0 mm 7 mps 751 mmHg 49%
    23:00 +34°C° 0 mm 6 mps 751 mmHg 54%
    Show more